Weather History for KAEX - May, 2013

Change the Weather History Date:

Wednesday, May 1, 2013

  Actual Average Record
Temperature  
Mean Temperature 75 °F 71 °F  
Max Temperature 83 °F 82 °F 94 °F (1901)
Min Temperature 66 °F 59 °F 42 °F (1925)
Degree Days  
Heating Degree Days 0 0  
Month to date heating degree days 0 0  
Since 1 July heating degree days 1844 1947  
Cooling Degree Days 10 6  
Month to date cooling degree days 10 6  
Year to date cooling degree days 137 165  
Growing Degree Days 24 (Base 50)    
Moisture  
Dew Point 64 °F    
Average Humidity 77    
Maximum Humidity 100    
Minimum Humidity 54    
Precipitation  
Precipitation 0.07 in 0.13 in 5.16 in (1937)
Month to date precipitation 0.07 0.13  
Year to date precipitation 21.11 19.41  
Snow  
Snow 0.00 in - 0.00 in ()
Month to date snowfall 0.0  
Since 1 July snowfall 0.0  
Snow Depth 0.00 in    
Sea Level Pressure  
Sea Level Pressure 29.87 in    
Wind  
Wind Speed 4 mph (NE)    
Max Wind Speed 15 mph    
Max Gust Speed 17 mph    
Visibility 9 miles    
Events Rain , Thunderstorm    
T = Trace of Precipitation, MM = Missing Value Source: NWS Daily Summary

Daily Weather History Graph

Daily Weather History Graph

Search for Another Location

Airport or City:

Trip Planner

Search our weather history database for the weather conditions in past years. The results will help you decide how hot, cold, wet, or windy it might be!

Date:

Astronomy

May. 01, 2013 Rise Set
Actual Time 6:25 AM CDT 7:49 PM CDT
Civil Twilight 5:59 AM CDT 8:15 PM CDT
Nautical Twilight 5:28 AM CDT 8:46 PM CDT
Astronomical Twilight 4:56 AM CDT 9:18 PM CDT
Moon 12:58 AM CDT (5/1) 12:03 PM CDT (5/1)
Length of Visible Light 14h 16m
Length of Day
13h 24m
Waning Gibbous, 59% of the Moon is Illuminated
May 1
Waning Gibbous
May 2
Last Quarter
May 9
New
May 17
First Quarter
May 24
Full

Hourly Weather History & Observations

Time (CDT) Temp. Heat Index Dew Point Humidity Pressure Visibility Wind Dir Wind Speed Gust Speed Precip Events Conditions
12:53 AM 68.0 °F - 63.0 °F 84% 29.87 in 10.0 mi ESE 6.9 mph - N/A   Mostly Cloudy
1:53 AM 66.0 °F - 63.0 °F 90% 29.85 in 10.0 mi Calm Calm - N/A   Overcast
2:53 AM 66.9 °F - 63.0 °F 87% 29.84 in 10.0 mi Calm Calm - N/A   Overcast
3:05 AM 66.2 °F - 62.6 °F 88% 29.83 in 10.0 mi ENE 3.5 mph - N/A   Overcast
3:53 AM 66.9 °F - 64.0 °F 90% 29.84 in 10.0 mi Calm Calm - N/A   Overcast
4:11 AM 66.2 °F - 64.4 °F 94% 29.83 in 10.0 mi Calm Calm - N/A   Overcast
4:53 AM 66.0 °F - 64.0 °F 93% 29.85 in 10.0 mi NNE 3.5 mph - N/A   Overcast
5:53 AM 66.0 °F - 64.0 °F 93% 29.86 in 10.0 mi NNE 3.5 mph - N/A   Overcast
6:53 AM 66.0 °F - 64.9 °F 96% 29.87 in 8.0 mi NNE 3.5 mph - N/A   Overcast
7:44 AM 66.2 °F - 64.4 °F 94% 29.87 in 2.0 mi Calm Calm - N/A   Overcast
7:53 AM 66.0 °F - 64.9 °F 96% 29.88 in 2.0 mi Calm Calm - N/A   Overcast
8:09 AM 66.2 °F - 64.4 °F 94% 29.88 in 2.0 mi Calm Calm - N/A Thunderstorm Overcast
8:24 AM 66.2 °F - 64.4 °F 94% 29.88 in 2.0 mi Calm Calm - N/A   Overcast
8:53 AM 66.0 °F - 64.9 °F 96% 29.90 in 2.0 mi Calm Calm - N/A   Overcast
9:00 AM 66.2 °F - 64.4 °F 94% 29.89 in 3.0 mi Calm Calm - N/A   Overcast
9:53 AM 66.9 °F - 66.0 °F 97% 29.91 in 5.0 mi Calm Calm - N/A   Overcast
10:43 AM 69.8 °F - 66.2 °F 88% 29.89 in 10.0 mi Calm Calm - N/A   Overcast
10:53 AM 73.0 °F - 66.0 °F 79% 29.90 in 10.0 mi SSW 3.5 mph - N/A   Overcast
11:04 AM 71.6 °F - 64.4 °F 78% 29.89 in 10.0 mi South 5.8 mph - N/A   Overcast
11:17 AM 71.6 °F - 64.4 °F 78% 29.89 in 10.0 mi SSW 4.6 mph - N/A   Overcast
11:53 AM 73.9 °F - 64.9 °F 73% 29.89 in 10.0 mi North 3.5 mph - N/A   Mostly Cloudy
12:12 PM 75.2 °F - 64.4 °F 69% 29.88 in 10.0 mi North 4.6 mph - N/A   Scattered Clouds
12:53 PM 77.0 °F - 64.0 °F 64% 29.88 in 10.0 mi Variable 4.6 mph - N/A   Partly Cloudy
1:53 PM 80.1 °F 81.5 °F 63.0 °F 56% 29.86 in 10.0 mi SE 3.5 mph - N/A   Partly Cloudy
2:53 PM 82.9 °F 84.4 °F 64.0 °F 53% 29.85 in 10.0 mi NNE 5.8 mph - N/A   Mostly Cloudy
3:53 PM 80.1 °F 81.7 °F 64.0 °F 58% 29.83 in 10.0 mi NNE 6.9 mph - N/A   Mostly Cloudy
4:53 PM 81.0 °F 82.5 °F 64.0 °F 56% 29.82 in 10.0 mi North 8.1 mph - N/A   Mostly Cloudy
5:46 PM 78.8 °F - 64.4 °F 61% 29.81 in 10.0 mi North 8.1 mph - N/A Thunderstorm Mostly Cloudy
5:53 PM 79.0 °F - 64.0 °F 60% 29.82 in 10.0 mi North 10.4 mph - N/A Thunderstorm Mostly Cloudy
6:53 PM 70.0 °F - 66.0 °F 87% 29.88 in 7.0 mi Calm Calm - 0.03 in Rain , Thunderstorm Thunderstorms and Rain
7:22 PM 69.8 °F - 66.2 °F 88% 29.87 in 10.0 mi ENE 6.9 mph - 0.00 in Rain , Thunderstorm Light Rain
7:29 PM 69.8 °F - 64.4 °F 83% 29.87 in 10.0 mi ENE 4.6 mph - 0.00 in   Overcast
7:53 PM 68.0 °F - 64.9 °F 90% 29.89 in 10.0 mi ENE 9.2 mph - 0.01 in Rain Light Rain
8:13 PM 66.2 °F - 64.4 °F 94% 29.87 in 10.0 mi East 4.6 mph - 0.01 in Rain Light Rain
8:21 PM 66.2 °F - 64.4 °F 94% 29.87 in 10.0 mi East 10.4 mph - 0.01 in Rain Light Rain
8:53 PM 66.9 °F - 64.0 °F 90% 29.87 in 10.0 mi ENE 6.9 mph - 0.01 in   Scattered Clouds
9:25 PM 66.2 °F - 64.4 °F 94% 29.86 in 10.0 mi ESE 5.8 mph - N/A   Scattered Clouds
9:39 PM 66.2 °F - 64.4 °F 94% 29.86 in 10.0 mi East 4.6 mph - N/A   Mostly Cloudy
9:50 PM 66.2 °F - 64.4 °F 94% 29.87 in 10.0 mi Calm Calm - N/A   Mostly Cloudy
9:53 PM 66.0 °F - 64.9 °F 96% 29.88 in 10.0 mi North 3.5 mph - N/A   Mostly Cloudy
10:53 PM 66.9 °F - 64.9 °F 93% 29.90 in 10.0 mi NNE 6.9 mph - N/A   Overcast
11:53 PM 66.9 °F - 64.9 °F 93% 29.91 in 10.0 mi NE 6.9 mph - 0.00 in Rain Light Rain